| time (UTC) | temp F | wind direction | speed knots | gust knots | rain 1hr in | rain 24hr in | rain mn in | humidity % | barometer mb |
| 20260906173833 | 92 | 180 | 0.0 | 3.5 | 0.00 | 0.00 | 0.00 | 65 | 1013.9 |
| 20260906173328 | 92 | 180 | 0.9 | 3.5 | 0.00 | 0.00 | 0.00 | 66 | 1013.9 |
| 20260906173000 | 92 | 178 | 0.0 | 0.9 | 0.00 | 0.00 | 0.00 | 66 | 1014.0 |
| 20260906172346 | 92 | 178 | 0.0 | 4.3 | 0.00 | 0.00 | 0.00 | 67 | 1013.9 |
| 20260906171338 | 92 | 215 | 0.0 | 3.5 | 0.00 | 0.00 | 0.00 | 66 | 1014.0 |
| 20260906170836 | 91 | 215 | 0.0 | 1.7 | 0.00 | 0.00 | 0.00 | 70 | 1014.0 |
| 20260906170332 | 91 | 215 | 0.0 | 5.2 | 0.00 | 0.00 | 0.00 | 68 | 1014.1 |
| 20260906165850 | 91 | 247 | 0.0 | 1.7 | 0.00 | 0.00 | 0.00 | 69 | 1014.2 |
| 20260906165346 | 91 | 296 | 0.0 | 1.7 | 0.00 | 0.00 | 0.00 | 69 | 1014.3 |
| 20260906164841 | 90 | 297 | 0.0 | 2.6 | 0.00 | 0.00 | 0.00 | 69 | 1014.4 |
| 20260906164337 | 90 | 297 | 0.0 | 2.6 | 0.00 | 0.00 | 0.00 | 69 | 1014.5 |
| 20260906163837 | 90 | 297 | 0.9 | 2.6 | 0.00 | 0.00 | 0.00 | 68 | 1014.6 |
| 20260906163336 | 90 | 296 | 0.0 | 2.6 | 0.00 | 0.00 | 0.00 | 73 | 1014.6 |
| 20260906162833 | 90 | 296 | 0.0 | 2.6 | 0.00 | 0.00 | 0.00 | 72 | 1014.8 |
| 20260906162349 | 90 | 296 | 0.0 | 2.6 | 0.00 | 0.00 | 0.00 | 73 | 1014.7 |
| 20260906161836 | 90 | 296 | 0.9 | 2.6 | 0.00 | 0.00 | 0.00 | 73 | 1014.8 |
| 20260906161332 | 89 | 296 | 0.0 | 2.6 | 0.00 | 0.00 | 0.00 | 73 | 1014.9 |
| 20260906160337 | 89 | 296 | 0.0 | 1.7 | 0.00 | 0.00 | 0.00 | 73 | 1014.9 |
| 20260906155830 | 89 | 296 | 0.0 | 1.7 | 0.00 | 0.00 | 0.00 | 73 | 1014.9 |
| 20260906155346 | 89 | 296 | 0.0 | 1.7 | 0.00 | 0.00 | 0.00 | 74 | 1014.9 |
| 20260906154843 | 88 | 296 | 0.0 | 1.7 | 0.00 | 0.00 | 0.00 | 78 | 1014.9 |
| 20260906154341 | 88 | 296 | 0.0 | 3.5 | 0.00 | 0.00 | 0.00 | 78 | 1014.9 |
| 20260906153838 | 87 | 296 | 0.0 | 3.5 | 0.00 | 0.00 | 0.00 | 79 | 1015.0 |
| 20260906153335 | 87 | 294 | 0.0 | 0.9 | 0.00 | 0.00 | 0.00 | 79 | 1014.9 |
| 20260906152853 | 87 | 294 | 0.0 | 3.5 | 0.00 | 0.00 | 0.00 | 81 | 1014.9 |
| 20260906152332 | 86 | 294 | 0.0 | 3.5 | 0.00 | 0.00 | 0.00 | 80 | 1015.0 |
| 20260906151849 | 86 | 294 | 0.0 | 2.6 | 0.00 | 0.00 | 0.00 | 82 | 1014.9 |
| 20260906150841 | 86 | 294 | 0.0 | 1.7 | 0.00 | 0.00 | 0.00 | 84 | 1015.1 |
| 20260906150336 | 86 | 294 | 0.0 | 3.5 | 0.00 | 0.00 | 0.00 | 84 | 1015.1 |
| 20260906144847 | 85 | 277 | 0.9 | 1.7 | 0.00 | 0.00 | 0.00 | 87 | 1015.1 |
| 20260906144341 | 85 | 277 | 0.0 | 2.6 | 0.00 | 0.00 | 0.00 | 89 | 1015.0 |
| 20260906143835 | 84 | 277 | 0.9 | 2.6 | 0.00 | 0.00 | 0.00 | 89 | 1015.1 |
| 20260906143331 | 84 | 277 | 0.0 | 0.9 | 0.00 | 0.00 | 0.00 | 91 | 1015.0 |
| 20260906142848 | 84 | 277 | 0.0 | 2.6 | 0.00 | 0.00 | 0.00 | 91 | 1015.1 |
| 20260906142344 | 83 | 277 | 0.0 | 1.7 | 0.00 | 0.00 | 0.00 | 93 | 1015.1 |
| 20260906141844 | 82 | 277 | 0.0 | 2.6 | 0.00 | 0.00 | 0.00 | 93 | 1015.1 |
| 20260906141341 | 82 | 277 | 0.9 | 2.6 | 0.00 | 0.00 | 0.00 | 92 | 1015.1 |
| 20260906140839 | 81 | 277 | 0.0 | 1.7 | 0.00 | 0.00 | 0.00 | 93 | 1015.0 |
| 20260906140336 | 81 | 277 | 0.0 | 1.7 | 0.00 | 0.00 | 0.00 | 93 | 1015.0 |
| 20260906135832 | 81 | 276 | 0.0 | 1.7 | 0.00 | 0.00 | 0.00 | 94 | 1015.0 |
| 20260906135331 | 81 | 277 | 0.0 | 0.0 | 0.00 | 0.00 | 0.00 | 94 | 1015.0 |
| 20260906134848 | 81 | 276 | 0.0 | 1.7 | 0.00 | 0.00 | 0.00 | 94 | 1015.0 |
| 20260906134342 | 80 | 277 | 0.0 | 1.7 | 0.00 | 0.00 | 0.00 | 94 | 1015.0 |
| 20260906133334 | 79 | 277 | 0.9 | 2.6 | 0.00 | 0.00 | 0.00 | 95 | 1015.1 |
| 20260906132829 | 79 | 276 | 0.0 | 0.9 | 0.00 | 0.00 | 0.00 | 95 | 1015.1 |
| 20260906132347 | 79 | 277 | 0.0 | 0.9 | 0.00 | 0.00 | 0.00 | 95 | 1015.1 |
| 20260906131334 | 78 | 276 | 0.0 | 2.6 | 0.00 | 0.00 | 0.00 | 95 | 1015.2 |
| 20260906130348 | 78 | 277 | 0.0 | 0.9 | 0.00 | 0.00 | 0.00 | 95 | 1015.1 |
| 20260906125842 | 78 | 276 | 0.0 | 0.9 | 0.00 | 0.00 | 0.00 | 95 | 1015.1 |
| 20260906125338 | 78 | 276 | 0.0 | 0.9 | 0.00 | 0.00 | 0.00 | 95 | 1015.0 |
| 20260906124831 | 78 | 276 | 0.0 | 0.0 | 0.00 | 0.00 | 0.00 | 95 | 1014.9 |
| 20260906123839 | 77 | 276 | 0.0 | 0.0 | 0.00 | 0.00 | 0.00 | 95 | 1015.0 |
| 20260906123337 | 77 | 276 | 0.0 | 0.0 | 0.00 | 0.00 | 0.00 | 95 | 1015.0 |
| 20260906122835 | 77 | 276 | 0.0 | 0.0 | 0.00 | 0.00 | 0.00 | 95 | 1015.0 |
| 20260906121835 | 77 | 276 | 0.0 | 0.0 | 0.00 | 0.00 | 0.00 | 95 | 1014.9 |
| 20260906120836 | 76 | 276 | 0.0 | 0.0 | 0.00 | 0.00 | 0.00 | 95 | 1014.9 |
| 20260906120331 | 76 | 276 | 0.0 | 0.0 | 0.00 | 0.00 | 0.00 | 95 | 1014.9 |
| 20260906115847 | 76 | 276 | 0.0 | 0.0 | 0.00 | 0.00 | 0.00 | 95 | 1014.8 |
| 20260906114336 | 76 | 276 | 0.0 | 0.0 | 0.00 | 0.00 | 0.00 | 95 | 1014.8 |
| 20260906113832 | 76 | 276 | 0.0 | 0.0 | 0.00 | 0.00 | 0.00 | 95 | 1014.8 |
| 20260906112845 | 76 | 276 | 0.0 | 0.0 | 0.00 | 0.00 | 0.00 | 95 | 1014.8 |
| 20260906112341 | 76 | 276 | 0.0 | 0.0 | 0.00 | 0.00 | 0.00 | 95 | 1014.7 |
| 20260906111347 | 76 | 276 | 0.0 | 0.0 | 0.00 | 0.00 | 0.00 | 95 | 1014.7 |
| 20260906110846 | 76 | 276 | 0.0 | 0.0 | 0.00 | 0.00 | 0.00 | 95 | 1014.7 |
| 20260906110341 | 76 | 276 | 0.0 | 0.0 | 0.00 | 0.00 | 0.00 | 95 | 1014.6 |
| 20260906105341 | 76 | 276 | 0.0 | 0.0 | 0.00 | 0.00 | 0.00 | 95 | 1014.5 |
| 20260906104839 | 76 | 276 | 0.0 | 0.0 | 0.00 | 0.00 | 0.00 | 95 | 1014.5 |
| 20260906104337 | 76 | 276 | 0.0 | 0.0 | 0.00 | 0.00 | 0.00 | 95 | 1014.3 |
| 20260906103837 | 76 | 276 | 0.0 | 0.0 | 0.00 | 0.00 | 0.00 | 95 | 1014.3 |
| 20260906102834 | 76 | 276 | 0.0 | 0.0 | 0.00 | 0.00 | 0.00 | 95 | 1014.1 |
| 20260906100835 | 75 | 276 | 0.0 | 0.0 | 0.00 | 0.00 | 0.00 | 95 | 1013.9 |
| 20260906100337 | 75 | 276 | 0.0 | 0.0 | 0.00 | 0.00 | 0.00 | 95 | 1014.0 |
| 20260906095836 | 75 | 276 | 0.0 | 0.0 | 0.00 | 0.00 | 0.00 | 95 | 1013.9 |
| 20260906095335 | 75 | 276 | 0.0 | 0.0 | 0.00 | 0.00 | 0.00 | 95 | 1013.9 |
| 20260906094832 | 75 | 276 | 0.0 | 0.0 | 0.00 | 0.00 | 0.00 | 95 | 1013.9 |
| 20260906094327 | 75 | 276 | 0.0 | 0.0 | 0.00 | 0.00 | 0.00 | 95 | 1013.8 |
| 20260906093846 | 75 | 276 | 0.0 | 0.0 | 0.00 | 0.00 | 0.00 | 95 | 1013.8 |
| 20260906093343 | 75 | 276 | 0.0 | 0.0 | 0.00 | 0.00 | 0.00 | 95 | 1013.7 |
| 20260906092841 | 75 | 276 | 0.0 | 0.0 | 0.00 | 0.00 | 0.00 | 95 | 1013.7 |
| 20260906092339 | 75 | 276 | 0.0 | 0.0 | 0.00 | 0.00 | 0.00 | 95 | 1013.7 |
| 20260906091837 | 76 | 276 | 0.0 | 0.0 | 0.00 | 0.00 | 0.00 | 95 | 1013.7 |
| 20260906091331 | 76 | 276 | 0.0 | 0.0 | 0.00 | 0.00 | 0.00 | 95 | 1013.7 |
| 20260906090850 | 76 | 276 | 0.0 | 0.0 | 0.00 | 0.00 | 0.00 | 95 | 1013.5 |
| 20260906090346 | 76 | 276 | 0.0 | 0.0 | 0.00 | 0.00 | 0.00 | 95 | 1013.4 |
| 20260906085340 | 76 | 276 | 0.0 | 0.0 | 0.00 | 0.00 | 0.00 | 95 | 1013.4 |
| 20260906084337 | 76 | 276 | 0.0 | 0.0 | 0.00 | 0.00 | 0.00 | 95 | 1013.5 |
| 20260906083839 | 76 | 276 | 0.0 | 0.0 | 0.00 | 0.00 | 0.00 | 95 | 1013.4 |
| 20260906082837 | 76 | 276 | 0.0 | 0.0 | 0.00 | 0.00 | 0.00 | 95 | 1013.4 |
| 20260906082332 | 76 | 276 | 0.0 | 0.0 | 0.00 | 0.00 | 0.00 | 94 | 1013.4 |
| 20260906081850 | 76 | 276 | 0.0 | 0.0 | 0.00 | 0.00 | 0.00 | 94 | 1013.4 |
| 20260906081344 | 76 | 276 | 0.0 | 0.0 | 0.00 | 0.00 | 0.00 | 94 | 1013.4 |
| 20260906080842 | 76 | 276 | 0.0 | 0.0 | 0.00 | 0.00 | 0.00 | 94 | 1013.4 |
| 20260906080340 | 76 | 276 | 0.0 | 0.0 | 0.00 | 0.00 | 0.00 | 94 | 1013.6 |
| 20260906075338 | 76 | 276 | 0.0 | 0.0 | 0.00 | 0.00 | 0.00 | 94 | 1013.5 |
| 20260906074835 | 76 | 276 | 0.0 | 0.0 | 0.00 | 0.00 | 0.00 | 94 | 1013.5 |
| 20260906073846 | 76 | 276 | 0.0 | 0.0 | 0.00 | 0.00 | 0.00 | 94 | 1013.7 |
| 20260906073343 | 76 | 276 | 0.0 | 0.0 | 0.00 | 0.00 | 0.00 | 94 | 1013.7 |
| 20260906072839 | 77 | 276 | 0.0 | 0.0 | 0.00 | 0.00 | 0.00 | 94 | 1013.7 |
| 20260906072333 | 77 | 276 | 0.0 | 0.0 | 0.00 | 0.00 | 0.00 | 94 | 1013.8 |
| 20260906071850 | 76 | 276 | 0.0 | 0.0 | 0.00 | 0.00 | 0.00 | 94 | 1013.8 |
| 20260906071344 | 77 | 276 | 0.0 | 0.0 | 0.00 | 0.00 | 0.00 | 94 | 1013.6 |
| 20260906070840 | 77 | 276 | 0.0 | 0.0 | 0.00 | 0.00 | 0.00 | 94 | 1013.7 |
| 20260906070339 | 77 | 276 | 0.0 | 0.0 | 0.00 | 0.00 | 0.00 | 94 | 1013.7 |
| 20260906065833 | 77 | 276 | 0.0 | 0.0 | 0.00 | 0.00 | 0.00 | 94 | 1013.7 |
| 20260906065349 | 77 | 276 | 0.0 | 0.0 | 0.00 | 0.00 | 0.00 | 94 | 1013.7 |
| 20260906064845 | 77 | 276 | 0.0 | 0.0 | 0.00 | 0.00 | 0.00 | 94 | 1013.7 |
| 20260906064343 | 77 | 276 | 0.0 | 0.0 | 0.00 | 0.00 | 0.00 | 93 | 1013.7 |
| 20260906063842 | 77 | 276 | 0.0 | 0.0 | 0.00 | 0.00 | 0.00 | 93 | 1013.7 |
| 20260906063339 | 77 | 276 | 0.0 | 0.0 | 0.00 | 0.00 | 0.00 | 93 | 1013.7 |
| 20260906062836 | 77 | 276 | 0.0 | 0.0 | 0.00 | 0.00 | 0.00 | 93 | 1013.7 |
| 20260906062330 | 78 | 276 | 0.0 | 0.0 | 0.00 | 0.00 | 0.00 | 93 | 1013.7 |
| 20260906060845 | 78 | 276 | 0.0 | 0.0 | 0.00 | 0.00 | 0.00 | 94 | 1014.0 |
| 20260906060343 | 78 | 276 | 0.0 | 0.0 | 0.00 | 0.00 | 0.00 | 94 | 1014.0 |
| 20260906055841 | 78 | 276 | 0.0 | 0.0 | 0.00 | 0.00 | 0.00 | 93 | 1014.2 |
| 20260906055339 | 78 | 276 | 0.0 | 0.0 | 0.00 | 0.00 | 0.00 | 93 | 1014.1 |
| 20260906054838 | 78 | 276 | 0.0 | 0.0 | 0.00 | 0.00 | 0.00 | 93 | 1014.0 |
| 20260906053345 | 78 | 276 | 0.0 | 0.0 | 0.00 | 0.00 | 0.00 | 93 | 1014.1 |
| 20260906052841 | 78 | 276 | 0.0 | 0.0 | 0.00 | 0.00 | 0.00 | 93 | 1014.0 |
| 20260906051833 | 78 | 276 | 0.0 | 0.0 | 0.00 | 0.00 | 0.00 | 93 | 1014.3 |
| 20260906051331 | 78 | 276 | 0.0 | 0.0 | 0.00 | 0.00 | 0.00 | 93 | 1014.2 |
| 20260906050847 | 78 | 276 | 0.0 | 0.0 | 0.00 | 0.00 | 0.00 | 93 | 1014.2 |
| 20260906050342 | 78 | 276 | 0.0 | 0.0 | 0.00 | 0.00 | 0.00 | 93 | 1014.2 |
| 20260906045836 | 78 | 276 | 0.0 | 0.0 | 0.00 | 0.00 | 0.00 | 93 | 1014.3 |
| 20260906045331 | 78 | 276 | 0.0 | 0.0 | 0.00 | 0.00 | 0.00 | 92 | 1014.3 |
| 20260906044849 | 78 | 276 | 0.0 | 0.0 | 0.00 | 0.00 | 0.00 | 92 | 1014.2 |
| 20260906044346 | 78 | 276 | 0.0 | 0.0 | 0.00 | 0.00 | 0.00 | 92 | 1014.2 |
| 20260906043843 | 78 | 276 | 0.0 | 0.0 | 0.00 | 0.00 | 0.00 | 92 | 1014.4 |
| 20260906043341 | 78 | 276 | 0.0 | 0.0 | 0.00 | 0.00 | 0.00 | 92 | 1014.3 |
| 20260906042839 | 78 | 276 | 0.0 | 0.0 | 0.00 | 0.00 | 0.00 | 92 | 1014.3 |
| 20260906042337 | 78 | 276 | 0.0 | 0.0 | 0.00 | 0.00 | 0.00 | 92 | 1014.4 |
| 20260906041833 | 78 | 276 | 0.0 | 0.0 | 0.00 | 0.00 | 0.00 | 92 | 1014.5 |
| 20260906040841 | 78 | 276 | 0.0 | 0.0 | 0.00 | 0.00 | 0.00 | 92 | 1014.4 |
| 20260906040336 | 78 | 276 | 0.0 | 0.0 | 0.00 | 0.00 | 0.00 | 92 | 1014.4 |
| 20260906035350 | 79 | 276 | 0.0 | 0.0 | 0.00 | 0.00 | 0.00 | 92 | 1014.4 |
| 20260906033848 | 79 | 276 | 0.0 | 0.0 | 0.00 | 0.00 | 0.00 | 92 | 1014.8 |
| 20260906032342 | 79 | 276 | 0.0 | 0.0 | 0.00 | 0.00 | 0.00 | 92 | 1015.0 |
| 20260906031835 | 79 | 276 | 0.0 | 0.0 | 0.00 | 0.00 | 0.00 | 92 | 1015.1 |
| 20260906030832 | 79 | 276 | 0.0 | 0.0 | 0.00 | 0.00 | 0.00 | 92 | 1015.0 |
| 20260906030347 | 79 | 276 | 0.0 | 0.0 | 0.00 | 0.00 | 0.00 | 92 | 1014.9 |
| 20260906025842 | 79 | 276 | 0.0 | 0.0 | 0.00 | 0.00 | 0.00 | 92 | 1014.8 |
| 20260906025336 | 79 | 276 | 0.0 | 0.0 | 0.00 | 0.00 | 0.00 | 92 | 1014.9 |
| 20260906024830 | 79 | 276 | 0.0 | 0.0 | 0.00 | 0.00 | 0.00 | 92 | 1014.9 |
| 20260906023846 | 79 | 276 | 0.0 | 0.0 | 0.00 | 0.00 | 0.00 | 92 | 1014.7 |
| 20260906023340 | 79 | 276 | 0.0 | 0.0 | 0.00 | 0.00 | 0.00 | 92 | 1014.7 |
| 20260906022339 | 79 | 276 | 0.0 | 0.0 | 0.00 | 0.00 | 0.00 | 91 | 1014.5 |
| 20260906021838 | 80 | 276 | 0.0 | 0.0 | 0.00 | 0.00 | 0.00 | 91 | 1014.5 |
| 20260906021336 | 80 | 276 | 0.0 | 0.0 | 0.00 | 0.00 | 0.00 | 91 | 1014.4 |
| 20260906020835 | 80 | 276 | 0.0 | 0.0 | 0.00 | 0.00 | 0.00 | 91 | 1014.4 |
| 20260906020331 | 80 | 276 | 0.0 | 0.0 | 0.00 | 0.00 | 0.00 | 91 | 1014.3 |
| 20260906015849 | 80 | 276 | 0.0 | 0.0 | 0.00 | 0.00 | 0.00 | 90 | 1014.1 |
| 20260906014345 | 80 | 276 | 0.0 | 0.0 | 0.00 | 0.00 | 0.00 | 90 | 1014.0 |
| 20260906013339 | 80 | 276 | 0.0 | 0.0 | 0.00 | 0.00 | 0.00 | 89 | 1013.8 |
| 20260906012835 | 81 | 276 | 0.0 | 0.0 | 0.00 | 0.00 | 0.00 | 89 | 1013.8 |
| 20260906012336 | 81 | 276 | 0.0 | 0.0 | 0.00 | 0.00 | 0.00 | 88 | 1013.7 |
| 20260906011832 | 81 | 276 | 0.0 | 0.0 | 0.00 | 0.00 | 0.00 | 88 | 1013.6 |
| 20260906011331 | 81 | 276 | 0.0 | 1.7 | 0.00 | 0.00 | 0.00 | 87 | 1013.5 |
| 20260906010829 | 81 | 276 | 0.0 | 0.9 | 0.00 | 0.00 | 0.00 | 87 | 1013.4 |
| 20260906010346 | 81 | 276 | 0.0 | 0.0 | 0.00 | 0.00 | 0.00 | 87 | 1013.4 |
| 20260906005841 | 81 | 276 | 0.0 | 0.0 | 0.00 | 0.00 | 0.00 | 87 | 1013.4 |
| 20260906005337 | 82 | 276 | 0.0 | 0.0 | 0.00 | 0.00 | 0.00 | 86 | 1013.3 |
| 20260906004837 | 82 | 276 | 0.0 | 0.0 | 0.00 | 0.00 | 0.00 | 86 | 1013.1 |
| 20260906004332 | 82 | 276 | 0.0 | 0.0 | 0.00 | 0.00 | 0.00 | 85 | 1013.1 |
| 20260906003850 | 82 | 276 | 0.0 | 0.0 | 0.00 | 0.00 | 0.00 | 85 | 1013.1 |
| 20260906003344 | 82 | 276 | 0.0 | 0.9 | 0.00 | 0.00 | 0.00 | 85 | 1013.2 |
| 20260906002839 | 83 | 276 | 0.0 | 0.9 | 0.00 | 0.00 | 0.00 | 84 | 1013.1 |
| 20260906002335 | 83 | 276 | 0.0 | 0.0 | 0.00 | 0.00 | 0.00 | 83 | 1013.1 |
| 20260906001832 | 83 | 276 | 0.0 | 0.0 | 0.00 | 0.00 | 0.00 | 83 | 1013.2 |
| 20260906001350 | 83 | 276 | 0.0 | 0.0 | 0.00 | 0.00 | 0.00 | 83 | 1013.2 |
| 20260906000846 | 84 | 276 | 0.0 | 0.0 | 0.00 | 0.00 | 0.00 | 83 | 1013.3 |
| 20260906000348 | 84 | 276 | 0.0 | 0.0 | 0.00 | 0.00 | 0.00 | 82 | 1013.1 |
| 20260905235334 | 85 | 276 | 0.0 | 0.9 | 0.00 | 0.00 | 0.00 | 81 | 1013.2 |
| 20260905234851 | 85 | 276 | 0.0 | 0.9 | 0.00 | 0.00 | 0.00 | 80 | 1013.2 |
| 20260905234345 | 85 | 276 | 0.0 | 1.7 | 0.00 | 0.00 | 0.00 | 80 | 1013.2 |
| 20260905233843 | 85 | 276 | 0.0 | 1.7 | 0.00 | 0.00 | 0.00 | 79 | 1013.2 |
| 20260905233340 | 86 | 277 | 0.0 | 0.0 | 0.00 | 0.00 | 0.00 | 79 | 1013.3 |
| 20260905232838 | 86 | 277 | 0.0 | 0.0 | 0.00 | 0.00 | 0.00 | 78 | 1013.2 |
| 20260905232334 | 86 | 277 | 0.0 | 0.0 | 0.00 | 0.00 | 0.00 | 78 | 1013.2 |
| 20260905231849 | 86 | 277 | 0.0 | 0.0 | 0.00 | 0.00 | 0.00 | 77 | 1013.1 |
| 20260905231345 | 87 | 277 | 0.0 | 0.0 | 0.00 | 0.00 | 0.00 | 78 | 1013.1 |
| 20260905230332 | 87 | 277 | 0.0 | 1.7 | 0.00 | 0.00 | 0.00 | 77 | 1013.1 |
| 20260905225848 | 87 | 277 | 0.0 | 1.7 | 0.00 | 0.00 | 0.00 | 76 | 1013.1 |
| 20260905224837 | 87 | 277 | 0.0 | 3.5 | 0.00 | 0.00 | 0.00 | 79 | 1013.2 |
| 20260905224333 | 87 | 277 | 0.9 | 3.5 | 0.00 | 0.00 | 0.00 | 79 | 1013.2 |
| 20260905223851 | 87 | 274 | 0.0 | 1.7 | 0.00 | 0.00 | 0.00 | 80 | 1013.2 |
| 20260905223345 | 87 | 274 | 0.0 | 1.7 | 0.00 | 0.00 | 0.00 | 80 | 1013.2 |
| 20260905222841 | 86 | 274 | 0.0 | 0.0 | 0.00 | 0.00 | 0.00 | 82 | 1013.3 |
| 20260905222336 | 86 | 274 | 0.0 | 0.9 | 0.00 | 0.00 | 0.00 | 82 | 1013.3 |
| 20260905221852 | 86 | 274 | 0.0 | 1.7 | 0.00 | 0.00 | 0.00 | 82 | 1013.3 |
| 20260905221330 | 86 | 274 | 0.0 | 1.7 | 0.00 | 0.00 | 0.00 | 82 | 1013.4 |
| 20260905220848 | 86 | 275 | 0.0 | 2.6 | 0.00 | 0.00 | 0.00 | 83 | 1013.6 |
| 20260905220347 | 85 | 275 | 0.0 | 2.6 | 0.00 | 0.00 | 0.00 | 83 | 1013.7 |
| 20260905215843 | 85 | 281 | 0.0 | 2.6 | 0.00 | 0.04 | 0.00 | 84 | 1013.8 |
| 20260905215340 | 85 | 290 | 0.0 | 1.7 | 0.00 | 0.04 | 0.00 | 85 | 1013.8 |
| 20260905214836 | 85 | 290 | 0.0 | 1.7 | 0.00 | 0.04 | 0.00 | 86 | 1013.9 |
| 20260905214351 | 85 | 290 | 0.0 | 0.9 | 0.00 | 0.04 | 0.00 | 86 | 1013.9 |
| 20260905213345 | 84 | 290 | 0.0 | 0.9 | 0.00 | 0.04 | 0.00 | 85 | 1013.8 |
| 20260905212840 | 84 | 290 | 0.0 | 0.0 | 0.00 | 0.04 | 0.00 | 86 | 1013.8 |
| 20260905212339 | 84 | 290 | 0.0 | 0.0 | 0.00 | 0.04 | 0.00 | 85 | 1013.6 |
| 20260905211336 | 84 | 290 | 0.0 | 1.7 | 0.00 | 0.04 | 0.00 | 84 | 1013.6 |
| 20260905210833 | 84 | 290 | 0.0 | 1.7 | 0.00 | 0.04 | 0.00 | 84 | 1013.6 |
| 20260905210351 | 84 | 290 | 0.0 | 0.0 | 0.00 | 0.04 | 0.00 | 84 | 1013.6 |
| 20260905205847 | 84 | 290 | 0.0 | 1.7 | 0.00 | 0.13 | 0.00 | 83 | 1013.7 |
| 20260905205342 | 85 | 290 | 0.0 | 3.5 | 0.00 | 0.13 | 0.00 | 83 | 1013.7 |
| 20260905204337 | 85 | 289 | 0.0 | 2.6 | 0.00 | 0.13 | 0.00 | 83 | 1013.9 |
| 20260905203839 | 85 | 289 | 0.0 | 1.7 | 0.00 | 0.13 | 0.00 | 83 | 1013.9 |
| 20260905202840 | 85 | 287 | 0.9 | 2.6 | 0.00 | 0.13 | 0.00 | 82 | 1014.1 |
| 20260905202336 | 85 | 287 | 0.9 | 4.3 | 0.00 | 0.13 | 0.00 | 81 | 1014.1 |
| 20260905201830 | 86 | 306 | 0.0 | 2.6 | 0.00 | 0.13 | 0.00 | 79 | 1014.2 |
| 20260905201348 | 87 | 310 | 0.0 | 2.6 | 0.00 | 0.13 | 0.00 | 79 | 1014.2 |
| 20260905200847 | 87 | 310 | 0.9 | 1.7 | 0.00 | 0.13 | 0.00 | 78 | 1014.2 |
| 20260905200346 | 87 | 311 | 0.9 | 4.3 | 0.00 | 0.13 | 0.00 | 77 | 1014.2 |
| 20260905195842 | 88 | 329 | 0.9 | 4.3 | 0.00 | 0.13 | 0.00 | 75 | 1014.4 |
| 20260905195337 | 90 | 331 | 0.9 | 5.2 | 0.00 | 0.13 | 0.00 | 73 | 1014.5 |
| 20260905194834 | 90 | 311 | 1.7 | 5.2 | 0.00 | 0.13 | 0.00 | 73 | 1014.5 |
| 20260905194331 | 90 | 343 | 0.9 | 1.7 | 0.00 | 0.13 | 0.00 | 73 | 1014.3 |
| 20260905193328 | 89 | 346 | 0.0 | 0.0 | 0.00 | 0.13 | 0.00 | 73 | 1014.6 |
| 20260905192848 | 89 | 346 | 0.0 | 2.6 | 0.00 | 0.13 | 0.00 | 72 | 1014.8 |
| 20260905192346 | 90 | 346 | 0.9 | 2.6 | 0.00 | 0.13 | 0.00 | 70 | 1014.9 |
| 20260905191841 | 90 | 17 | 0.9 | 3.5 | 0.00 | 0.13 | 0.00 | 69 | 1014.9 |
| 20260905191340 | 90 | 17 | 0.0 | 3.5 | 0.00 | 0.13 | 0.00 | 69 | 1015.0 |
| 20260905190836 | 89 | 18 | 0.9 | 4.3 | 0.00 | 0.13 | 0.00 | 72 | 1015.0 |
| 20260905190351 | 89 | 19 | 0.0 | 7.0 | 0.00 | 0.13 | 0.00 | 72 | 1015.0 |
| 20260905185846 | 89 | 17 | 1.7 | 7.0 | 0.00 | 0.13 | 0.00 | 72 | 1014.9 |
| 20260905185342 | 89 | 340 | 1.7 | 5.2 | 0.00 | 0.13 | 0.00 | 73 | 1014.9 |
| 20260905184837 | 89 | 335 | 0.9 | 2.6 | 0.00 | 0.13 | 0.00 | 76 | 1014.9 |
| 20260905184332 | 88 | 335 | 0.0 | 1.7 | 0.00 | 0.13 | 0.00 | 79 | 1014.9 |
| 20260905183850 | 88 | 335 | 0.0 | 3.5 | 0.00 | 0.13 | 0.00 | 77 | 1015.1 |
| 20260905183345 | 88 | 335 | 1.7 | 3.5 | 0.00 | 0.13 | 0.00 | 74 | 1015.1 |
| 20260905182840 | 89 | 333 | 0.0 | 2.6 | 0.00 | 0.13 | 0.00 | 74 | 1015.0 |
| 20260905181343 | 89 | 332 | 0.9 | 3.5 | 0.00 | 0.13 | 0.00 | 71 | 1015.2 |
| 20260905180913 | 89 | 333 | 1.7 | 3.5 | 0.00 | 0.13 | 0.00 | 73 | 1015.3 |
| 20260905180345 | 88 | 333 | 0.9 | 3.5 | 0.00 | 0.13 | 0.00 | 74 | 1015.3 |
| 20260905175343 | 88 | 332 | 0.9 | 4.3 | 0.00 | 0.13 | 0.00 | 74 | 1015.5 |
| 20260905174841 | 88 | 329 | 0.0 | 3.5 | 0.00 | 0.13 | 0.00 | 77 | 1015.6 |
| 20260905174340 | 88 | 327 | 0.9 | 6.1 | 0.00 | 0.13 | 0.00 | 77 | 1015.8 |